カタログに戻る

STARLINK-32780

運用中通信VLEO
NORAD 62746·PAYLOAD·🇺🇸 United States

打ち上げ Jan 21, 2025 から Cape Canaveral Space Force Station

Loading…

次のパス (今後24時間)

TLE

最新Source: CelesTrak SupGP

元期: Sep 14, 2026, 21:33 UTC

1 62746C 25014M   26257.89840278 -.00030763  00000+0 -11141-2 0  2572
2 62746  43.0013 166.2096 0001376 262.4641 331.2580 15.27596149    12

AllMySatでSTARLINK-32780をリアルタイム追跡

Download on the App Store